Overview Statistics Trail Chart Weather Telemetry Raw packets
 

This is the latest recevied weather packets stored in our database for station/object KB9PVH-8. If no packets are shown the sender has not sent any weather packets the latest 10 day(s).

<< 9 10 11 12 13 14 15 >>
Time Temp. Humidity Pressure Rain* Wind** Luminosity Snow
1788458534 23.33° C - - 0.51 mm 4.92 m/s, ° - -
1788456852 23.33° C - - 0 mm 6.26 m/s, ° - -
1788456012 23.33° C - - 0 mm 9.39 m/s, ° - -
1788455172 22.78° C - - 1.78 mm 8.05 m/s, ° - -
1788454332 23.33° C - - 0 mm 10.28 m/s, ° - -
1788453492 22.78° C - - 0 mm 10.28 m/s, ° - -
1788450972 22.22° C - - 1.02 mm 4.02 m/s, ° - -
1788450165 22.22° C - - 4.06 mm 1.79 m/s, ° - -
1788450132 22.22° C - - 4.06 mm 1.79 m/s, ° - -
1788449364 22.22° C - - 4.57 mm 1.34 m/s, ° - -
1788449292 22.22° C - - 4.57 mm 1.34 m/s, ° - -
1788448452 21.67° C - - 7.62 mm 1.34 m/s, ° - -
1788447612 21.67° C - - 2.29 mm 0.45 m/s, ° - -
1788446774 21.67° C - - 0 mm 0.45 m/s, ° - -
1788445934 22.22° C - - 0.51 mm 0.45 m/s, ° - -
1788445092 22.22° C - - 1.02 mm 0.45 m/s, ° - -
1788443412 22.78° C - - 0.51 mm 2.68 m/s, ° - -
1788441703 22.78° C - - 1.02 mm 0.45 m/s, ° - -
1788440862 22.78° C - - 1.02 mm 0 m/s - -
1788440069 22.78° C - - 0 mm 0 m/s - -
1788440022 22.78° C - - 0 mm 0 m/s - -
1788437502 22.22° C - - 0 mm 0 m/s - -
1788436664 22.22° C - - 0 mm 0 m/s - -
1788435858 22.78° C - - 0 mm 0 m/s - -
1788435822 22.78° C - - 0 mm 0 m/s - -

* Rain latest hour (hover to see other rain measurements)
** Current wind speed in m/s (hover to see current wind gust speed)